Weather History for CYYG - October, 2012

Change the Weather History Date:

Sunday, October 14, 2012

  Actual Average Record
Temperature  
Mean Temperature 38 °F -  
Max Temperature 43 °F 49 °F 64 °F (2001)
Min Temperature 32 °F 35 °F 30 °F (2013)
Degree Days  
Heating Degree Days 28    
Moisture  
Dew Point 33 °F    
Average Humidity 76    
Maximum Humidity 100    
Minimum Humidity 53    
Precipitation  
Precipitation 0.02 in 0.15 in - ()
Sea Level Pressure  
Sea Level Pressure 30.20 in    
Wind  
Wind Speed 7 mph ()    
Max Wind Speed 13 mph    
Max Gust Speed 20 mph    
Visibility 12.3 miles    
Events Rain , Snow    
Averages and records for this station are not official NWS values.
T = Trace of Precipitation, MM = Missing Value Source: Averaged Metar Reports

Daily Weather History Graph

Daily Weather History Graph

Search for Another Location

Airport or City:

Trip Planner

Search our weather history database for the weather conditions in past years. The results will help you decide how hot, cold, wet, or windy it might be!

Date:

Astronomy

Oct. 14, 2012 Rise Set
Actual Time 7:28 AM ADT 6:27 PM ADT
Civil Twilight 6:58 AM ADT 6:57 PM ADT
Nautical Twilight 6:23 AM ADT 7:32 PM ADT
Astronomical Twilight 5:48 AM ADT 8:06 PM ADT
Moon 6:21 AM ADT (10/14) 5:43 PM ADT (10/14)
Length of Visible Light 11h 58m
Length of Day
10h 58m
Waning Crescent, 1% of the Moon is Illuminated
Oct 14
Waning Crescent
Oct 15
New
Oct 22
First Quarter
Oct 29
Full
Nov 6
Last Quarter

Hourly Weather History & Observations

Time (ADT) Temp. Windchill Dew Point Humidity Pressure Visibility Wind Dir Wind Speed Gust Speed Precip Events Conditions
12:00 AM 35.6 °F 29.9 °F 23.0 °F 60% 30.25 in 15.0 mi West 6.9 mph - N/A   Mostly Cloudy
1:00 AM 35.6 °F 29.9 °F 23.0 °F 60% 30.25 in 15.0 mi West 6.9 mph - N/A   Partly Cloudy
2:00 AM 33.8 °F 29.6 °F 21.2 °F 60% 30.25 in 15.0 mi SW 4.6 mph - N/A   Scattered Clouds
3:00 AM 33 °F - 23 °F 57% 30.26 in 15 mi SW 6.9 mph - -   Scattered Clouds
3:00 AM 32.0 °F 25.6 °F 23.0 °F 69% 30.25 in 15.0 mi SW 6.9 mph - N/A   Mostly Cloudy
4:00 AM 33.8 °F 27.7 °F 24.8 °F 70% 30.25 in 15.0 mi WSW 6.9 mph - N/A   Mostly Cloudy
5:00 AM 33.8 °F 27.7 °F 24.8 °F 70% 30.26 in 15.0 mi West 6.9 mph - N/A   Overcast
6:00 AM 33.8 °F 28.6 °F 26.6 °F 75% 30.27 in 15.0 mi West 5.8 mph - N/A   Overcast
7:00 AM 35.6 °F 30.7 °F 28.4 °F 75% 30.27 in 15.0 mi WSW 5.8 mph - N/A   Overcast
8:00 AM 35.6 °F 30.7 °F 30.2 °F 81% 30.28 in 15.0 mi WSW 5.8 mph - N/A   Overcast
9:00 AM 38 °F - 28 °F 57% 30.28 in 15 mi WSW 6.9 mph - -   Overcast
9:00 AM 39.2 °F 35.0 °F 28.4 °F 65% 30.28 in 15.0 mi WSW 5.8 mph - N/A   Overcast
10:00 AM 41.0 °F 38.0 °F 28.4 °F 61% 30.27 in 15.0 mi WSW 4.6 mph - N/A   Overcast
11:00 AM 42.8 °F 36.2 °F 26.6 °F 53% 30.26 in 15.0 mi WSW 12.7 mph 19.6 mph N/A   Overcast
12:00 PM 42.8 °F 36.6 °F 30.2 °F 61% 30.25 in 15.0 mi West 11.5 mph 18.4 mph N/A   Overcast
1:00 PM 41.0 °F 34.3 °F 33.8 °F 76% 30.25 in 15.0 mi WSW 11.5 mph - N/A   Overcast
1:31 PM 41.0 °F 35.2 °F 35.6 °F 81% 30.23 in 12.0 mi WSW 9.2 mph - N/A Rain Light Rain Showers
2:00 PM 41.0 °F 35.2 °F 35.6 °F 81% 30.22 in 15.0 mi SW 9.2 mph - N/A   Overcast
2:45 PM 42.8 °F 37.0 °F 33.8 °F 70% 30.21 in 15.0 mi SSW 10.4 mph - N/A   Overcast
3:00 PM 42 °F - 34 °F 66% 30.21 in 47 mi SSW 9.2 mph - - Snow Light Snow Showers
3:00 PM 42.8 °F 37.5 °F 33.8 °F 70% 30.21 in - SSW 9.2 mph - N/A   Overcast
4:00 PM 42.8 °F 37.0 °F 35.6 °F 76% 30.18 in 15.0 mi South 10.4 mph - N/A   Overcast
4:35 PM 42.8 °F 37.0 °F 37.4 °F 81% 30.17 in 12.0 mi South 10.4 mph - N/A Rain Light Rain Showers
5:00 PM 42.8 °F 37.0 °F 37.4 °F 81% 30.16 in 10.0 mi South 10.4 mph - N/A Rain Light Rain Showers
6:00 PM 42.8 °F 37.0 °F 39.2 °F 87% 30.14 in 10.0 mi South 10.4 mph - N/A   Light Drizzle
7:00 PM 42.8 °F 37.5 °F 41.0 °F 93% 30.12 in 10.0 mi South 9.2 mph - N/A   Light Drizzle
7:17 PM 42.8 °F 38.6 °F 41.0 °F 93% 30.11 in 10.0 mi South 6.9 mph - N/A   Light Drizzle
8:49 PM 42.8 °F 38.6 °F 41.0 °F 93% 30.10 in 10.0 mi ESE 6.9 mph - N/A   Light Drizzle
9:00 PM 42 °F - 41 °F 97% 30.10 in 6 mi ESE 6.9 mph - - Rain Light Drizzle
9:00 PM 42.8 °F 39.3 °F 41.0 °F 93% 30.09 in 6.0 mi ESE 5.8 mph - N/A   Light Drizzle
10:00 PM 41.0 °F 36.4 °F 41.0 °F 100% 30.07 in 3.0 mi East 6.9 mph - N/A   Light Drizzle
10:38 PM 41.0 °F 38.0 °F 41.0 °F 100% 30.06 in 3.0 mi East 4.6 mph - N/A   Light Drizzle
11:00 PM 42.8 °F 39.3 °F 42.8 °F 100% 30.05 in 3.0 mi East 5.8 mph - N/A   Light Drizzle